Regional Weather Roundup
Issued by NWS

Home | Current Version | Previous Version | Text Only | Print | Product List | Glossary On
Versions: 1 2 3 4 5 6 7 8 9 10 11 12 13 14 15 16 17 18 19 20 21 22 23 24 25 26 27 28 29 30 31 32 33 34 35 36 37 38 39 40 41 42 43 44 45 46 47 48 49 50
000
ASUS43 KLSX 290210
RWRMO

WEATHER SUMMARY FOR MISSOURI
NATIONAL WEATHER SERVICE SPRINGFIELD MO
900 PM CDT FRI AUG 28 2015

NOTE: "FAIR" INDICATES FEW OR NO CLOUDS BELOW 12,000 FEET WITH NO
       SIGNIFICANT WEATHER AND/OR OBSTRUCTIONS TO VISIBILITY.
       CURRENT SKY AND/OR WEATHER CONDITIONS ARE NOT AVAILABLE FOR
       CHILLICOTHE AND FARMINGTON.

MOZ001>031-035>038-043-044-053-054-290300-
...NORTHERN AND WESTERN MISSOURI...

CITY           SKY/WX    TMP DP  RH WIND       PRES   REMARKS
KANSAS CTY INT MOCLDY    73  67  81 S15       29.91R
KANSAS C DTWN  MOCLDY    75  67  76 S13       29.91R
LEE`S SUMMIT   CLOUDY    73  67  81 S6        29.94R
ST JOSEPH      LGT RAIN  73  67  81 S5        29.90R
CHILLICOTHE      N/A     73  68  84 S7        29.94R
KIRKSVILLE     CLOUDY    69  65  86 SE6       29.96R

$$
MOZ066>068-077>081-088>096-101>105-290300-
...SOUTHWEST MISSOURI...

CITY           SKY/WX    TMP DP  RH WIND       PRES   REMARKS
SPRINGFIELD    MOCLDY    74  61  63 SE16      29.96F
JOPLIN         CLOUDY    73  66  78 S8        29.96R

$$
MOZ032>034-039>042-045>050-055>058-069>072-290300-
...CENTRAL MISSOURI...

CITY           SKY/WX    TMP DP  RH WIND       PRES   REMARKS
COLUMBIA       CLOUDY    70  65  84 SE9       29.97F
JEFFERSON CITY CLOUDY    73  63  70 SE8       29.96F
ROLLA          CLOUDY    71  62  73 SE8       30.00R
SEDALIA        MOCLDY    72  65  78 SE7       29.97R
WHITEMAN AFB   MOCLDY    70  66  85 S7        29.94R
WARRENSBURG    CLOUDY    70  64  83 CALM      29.95R
OSAGE BEACH    CLOUDY    73  63  68 SE7       29.98R

$$
MOZ051-052-059>065-290300-
...EAST CENTRAL MISSOURI...

CITY           SKY/WX    TMP DP  RH WIND       PRES   REMARKS
ST LOUIS INTL  CLOUDY    77  59  53 S9        30.02R
SPIRIT OF STL  CLOUDY    74  63  68 SE5       30.00R
ST CHARLES     CLOUDY    72  63  73 SE6       29.99R

$$
MOZ072>076-082>087-097>100-106>115-290300-
...SOUTH CENTRAL AND SOUTHEAST MISSOURI...

CITY           SKY/WX    TMP DP  RH WIND       PRES   REMARKS
CAPE GIRARDEAU PTCLDY    68  64  87 SE3       30.03R
FARMINGTON     CLOUDY    70  63  78 S6        30.06R
POPLAR BLUFF   MOCLDY    70  66  87 CALM      30.02R
WEST PLAINS    PTCLDY    69  60  73 SE6       30.05S

$$


USA.gov is the U.S. government's official web portal to all federal, state and local government web resources and services.